Location: Roc des P�zouls
(43.9667°N, 3.5500°E)
Time: 19:51:21
(UTC+00:00)

Cosmos 1484 Rocket - Pass Details

Date: 14 November 2019
Orbit: 507 x 559 km, 97.4° (Epoch: 06 December)

Event Time Altitude Azimuth Distance (km) Brightness Sun altitude
Rises 06:05:02 0° 354° (N) 2,740 6.1 -6.5°
Reaches altitude 10° 06:07:52 10° 332° (NNW) 1,847 5.1 -6.0°
Maximum altitude 06:10:14 15° 296° (WNW) 1,529 4.4 -5.6°
Drops below altitude 10° 06:12:35 10° 259° (W) 1,845 5.0 -5.2°
Sets 06:15:26 0° 237° (WSW) 2,737 6.0 -4.7°
